Location: *
(44.9308°N, 123.0197°W)
Time: 04:21:33
(UTC+00:00)

STARLINK-1063 - Pass Details

Date: 09 April 2020
Orbit: 548 x 550 km, 53.0° (Epoch: 25 May)

Event Time Altitude Azimuth Distance (km) Brightness Sun altitude
Exits shadow 12:20:39 22° 260° (W) 1,240 4.8 -13.6°
Maximum altitude 12:23:11 57° 333° (NNW) 650 3.9 -13.2°
Drops below altitude 10° 12:27:17 10° 53° (NE) 1,827 7.7 -12.5°
Sets 12:29:33 0° 57° (ENE) 2,723 9.1 -12.2°
